THOR ABLESTAR DEB, 131

Orbit data source: Space-Track

THOR ABLESTAR DEB, 131 is space debris in LEO originally from a launch on Thu, 29 Jun 1961 UTC launched from the Air Force Eastern Test Range (AFETR). Debris objects in space refer to the collection of defunct objects orbiting the Earth. Examples of debris include non-operational satellites, rocket bodies, and fragments generated from explosions, collisions, or faulty payload assembly.

Loading next visibility...
Identifier
131, 1961-015R
Orbit
LEO
Country
Flag of USUS
Related business
Manufacturer
Unknown
Mission
Spacecraft
Bus & Motor
Unknown
Mass
Unknown
Launch date (UTC)
1961-06-29 (65 years ago)
Launch vehicle
Unknown
Launch site
Air Force Eastern Test Range (AFETR)
Object type
Payload
Rocket body
Debris
Shape & HBR
Unknown shape, 0.2 m
Radar Cross Section
Medium (>0.1 m² and <1 m²)

Expand to show TLE details & history
Last TLE update: 17 hours ago

TLE from 17 hours ago
0 THOR ABLESTAR DEB
1 00131U 61015R   26126.50834289  .00000088  00000-0  10722-3 0  9995
2 00131  66.7352 207.4724 0072837  99.0679 261.8656 14.01774152297621
Epoch: 2026-05-06T12:12Z
TLE epoch observation values (Epoch: 2026-05-06T12:12:00.825Z)
Latitude
-0.00005°
Longitude
160.10112°
Altitude
897.606 km
Speed
7.4 km/s
True Right ascension
13h 49m 53s
True Declination
0° 00' 00"
Sunlit
Object was in full shadow at epoch
Visualization orbit readout
Latitude
Unknown
Longitude
Unknown
Altitude
Unknown
Speed
Unknown
Apparent Right ascension
Unknown
Apparent Declination
Unknown
Sunlit
N/A
Visualization observer readout
Local Sidereal Time
12:44:40
Azimuth
Unknown
Elevation
Unknown
Doppler factor
Unknown
Orbital elements
Apogee altitude
938.961 km
Perigee altitude
833.14 km
Semi-major axis
7,264.187 km
Eccentricity
0.00728
Inclination
66.7352°
RAAN
207.4724°
Arg. of periapsis
99.0679°
True anomaly
261.04044°
Mean anomaly
261.8656°
Eccentric anomaly
261.45291°
Mean motion
3.5056 °/min
Orbital period
102.69 mins
BSTAR
0.00010722

Documentation

Showing up to 5 results
|